EDW67 VRMM-LSZH

Flight info

Callsign EDW67
Flight time N/A
Altitude 34000
Route ELBET1A ELBET L894 KITAL P570 EMURU N563 BOSEV/N0484F360 N563 ALPOB L768 VATIM L550 NOVPA J981 DATOK/N0473F380 L550 GENIV L324 LAKTO DCT OTHON DCT VAXOS DCT RDS UL609 MES DCT DISOR DCT NASKO DCT LONTA UL608 DOLEV DCT EVAXI DCT ERKIR DCT KPT L856 NEGRA
Aircraft A343/H-SDE2E3FGHIJ4J5M1RWXY/LB1D1

Departure

Time N/A
Airport Velana International Airport (VRMM)

Arrival

Time 2026-02-18 12:14
Airport Zürich Airport (LSZH)
Time Latitude Longitude Altitude Speed Heading
2026-02-18 12:06 47.67530 8.49449 6115 ft 241 kts 287°
2026-02-18 12:06 47.67918 8.47901 6017 ft 237 kts 287°
2026-02-18 12:07 47.68416 8.45614 5873 ft 228 kts 277°
2026-02-18 12:07 47.68361 8.43377 5689 ft 219 kts 251°
2026-02-18 12:07 47.67648 8.41516 5415 ft 218 kts 231°
2026-02-18 12:07 47.66632 8.39841 5190 ft 219 kts 226°
2026-02-18 12:08 47.64599 8.36701 4988 ft 211 kts 222°
2026-02-18 12:08 47.63362 8.35558 4743 ft 210 kts 198°
2026-02-18 12:08 47.62212 8.35380 4523 ft 212 kts 174°
2026-02-18 12:09 47.61105 8.35955 4330 ft 214 kts 150°
2026-02-18 12:09 47.59870 8.37452 4110 ft 211 kts 140°
2026-02-18 12:09 47.58816 8.38937 4031 ft 203 kts 139°
2026-02-18 12:10 47.57831 8.40332 4003 ft 189 kts 139°
2026-02-18 12:10 47.56888 8.41658 3747 ft 184 kts 139°
2026-02-18 12:10 47.56086 8.42776 3532 ft 180 kts 139°
2026-02-18 12:10 47.55182 8.44025 3297 ft 179 kts 139°
2026-02-18 12:11 47.54460 8.45019 3122 ft 179 kts 139°
2026-02-18 12:11 47.53542 8.46275 2872 ft 179 kts 138°
2026-02-18 12:11 47.52710 8.47418 2646 ft 166 kts 138°
2026-02-18 12:11 47.51968 8.48433 2458 ft 150 kts 131°
2026-02-18 12:12 47.51259 8.49453 2250 ft 137 kts 133°
2026-02-18 12:12 47.50562 8.50427 2106 ft 138 kts 136°
2026-02-18 12:12 47.49878 8.51357 1903 ft 138 kts 137°
2026-02-18 12:12 47.49350 8.52057 1784 ft 138 kts 138°
2026-02-18 12:13 47.48648 8.53015 1571 ft 138 kts 135°
2026-02-18 12:13 47.47472 8.54612 1404 ft 98 kts 137°
2026-02-18 12:13 47.47065 8.55171 1387 ft 68 kts 137°
2026-02-18 12:14 47.46795 8.55536 1406 ft 32 kts 139°
2026-02-18 12:14 47.46630 8.55666 1403 ft 27 kts 166°
2026-02-18 12:14 47.46453 8.55726 1409 ft 24 kts 167°
2026-02-18 12:14 47.46336 8.55821 1411 ft 17 kts 137°
2026-02-18 12:15 47.46275 8.55904 1414 ft 15 kts 138°
2026-02-18 12:15 47.46213 8.55986 1417 ft 13 kts 138°
2026-02-18 12:15 47.46185 8.56012 1418 ft 0 kts 173°
2026-02-18 12:15 47.46163 8.56005 1415 ft 10 kts 189°
2026-02-18 12:16 47.46049 8.55982 1414 ft 20 kts 185°
2026-02-18 12:16 47.45948 8.55948 1418 ft 12 kts 224°
2026-02-18 12:16 47.45942 8.55836 1410 ft 13 kts 274°
2026-02-18 12:16 47.45951 8.55695 1414 ft 16 kts 276°
2026-02-18 12:17 47.45962 8.55562 1411 ft 6 kts 278°
2026-02-18 12:17 47.46018 8.55524 1410 ft 5 kts
2026-02-18 12:17 47.46047 8.55529 1411 ft 3 kts
2026-02-18 12:18 47.46051 8.55529 1412 ft 0 kts